This is the latest recevied weather packets stored in our database for station/object AI5YA-13. If no packets are shown the sender has not sent any weather packets the latest 10 day(s).
| Time | Temp. | Humidity | Pressure | Rain* | Wind** | Luminosity | Snow |
|---|---|---|---|---|---|---|---|
| 1777582162 | 20° C | 51% | 1014.3 hPa | 0 mm | - | 627 W/m² | - |
| 1777581860 | 19.44° C | 53% | 1014.3 hPa | 0 mm | - | 548 W/m² | - |
| 1777581555 | 19.44° C | 53% | 1015.1 hPa | 0 mm | - | 696 W/m² | - |
| 1777581250 | 18.89° C | 54% | 1015.2 hPa | 0 mm | - | 682 W/m² | - |
| 1777580945 | 19.44° C | 54% | 1015.2 hPa | 0 mm | - | 738 W/m² | - |
| 1777580640 | 18.33° C | 57% | 1015.3 hPa | 0 mm | - | 729 W/m² | - |
| 1777580335 | 18.33° C | 57% | 1015.4 hPa | 0 mm | - | 703 W/m² | - |
| 1777580032 | 17.78° C | 59% | 1015.5 hPa | 0 mm | - | 549 W/m² | - |
| 1777579728 | 17.78° C | 60% | 1015.5 hPa | 0 mm | - | 518 W/m² | - |
| 1777579426 | 17.22° C | 61% | 1015.5 hPa | 0 mm | - | 437 W/m² | - |
| 1777579122 | 17.22° C | 61% | 1015.4 hPa | 0 mm | - | 352 W/m² | - |
| 1777578821 | 17.22° C | 61% | 1015.6 hPa | 0 mm | - | 300 W/m² | - |
| 1777578517 | 17.22° C | 61% | 1015.8 hPa | 0 mm | - | 304 W/m² | - |
| 1777578212 | 16.67° C | 62% | 1015.8 hPa | 0 mm | - | 271 W/m² | - |
| 1777577908 | 16.67° C | 62% | 1015.7 hPa | 0 mm | - | 320 W/m² | - |
| 1777577604 | 16.67° C | 63% | 1015.8 hPa | 0 mm | - | 370 W/m² | - |
| 1777577301 | 16.67° C | 63% | 1016.2 hPa | 0 mm | - | 406 W/m² | - |
| 1777576997 | 16.67° C | 63% | 1015.9 hPa | 0 mm | - | 409 W/m² | - |
| 1777576694 | 16.11° C | 64% | 1015.7 hPa | 0 mm | - | 373 W/m² | - |
| 1777576392 | 16.11° C | 64% | 1015.5 hPa | 0 mm | - | 358 W/m² | - |
| 1777576089 | 16.11° C | 63% | 1015.6 hPa | 0 mm | - | 411 W/m² | - |
| 1777575785 | 16.67° C | 62% | 1015.8 hPa | 0 mm | - | 457 W/m² | - |
| 1777575482 | 16.11° C | 63% | 1015.8 hPa | 0 mm | - | 670 W/m² | - |
| 1777575178 | 16.67° C | 62% | 1016 hPa | 0 mm | - | 480 W/m² | - |
| 1777574874 | 16.11° C | 64% | 1016.3 hPa | 0 mm | - | 612 W/m² | - |
* Rain latest hour (hover to see other rain measurements)
** Current wind speed in m/s (hover to see current wind gust speed)